This is the latest recevied weather packets stored in our database for station/object SP1BMW-13. If no packets are shown the sender has not sent any weather packets the latest 10 day(s).
| Time | Temp. | Humidity | Pressure | Rain* | Wind** | Luminosity | Snow |
|---|---|---|---|---|---|---|---|
| 1778166056 | 11.67° C | 60% | 1015.1 hPa | 0 mm | 1.79 m/s, 319° | 138 W/m² | - |
| 1778165996 | 11.67° C | 59% | 1015 hPa | 0 mm | 0.89 m/s, 46° | 138 W/m² | - |
| 1778165935 | 11.67° C | 58% | 1015.1 hPa | 0 mm | 1.34 m/s, 48° | 138 W/m² | - |
| 1778165875 | 11.67° C | 58% | 1015 hPa | 0 mm | 2.24 m/s, 37° | 139 W/m² | - |
| 1778165816 | 11.67° C | 58% | 1015 hPa | 0 mm | 1.34 m/s, 48° | 139 W/m² | - |
| 1778165756 | 11.67° C | 58% | 1015 hPa | 0 mm | 1.79 m/s, 327° | 139 W/m² | - |
| 1778165695 | 11.67° C | 58% | 1015 hPa | 0 mm | 1.34 m/s, 342° | 139 W/m² | - |
| 1778165636 | 11.67° C | 58% | 1015.1 hPa | 0 mm | 0.89 m/s, 28° | 140 W/m² | - |
| 1778165575 | 11.67° C | 59% | 1015 hPa | 0 mm | 0 m/s | 140 W/m² | - |
| 1778165516 | 11.67° C | 59% | 1015 hPa | 0 mm | 0.45 m/s, 45° | 140 W/m² | - |
| 1778165455 | 11.67° C | 58% | 1014.9 hPa | 0 mm | 0.45 m/s, 53° | 140 W/m² | - |
| 1778165395 | 11.67° C | 58% | 1015 hPa | 0 mm | 1.34 m/s, 60° | 140 W/m² | - |
| 1778165336 | 11.67° C | 59% | 1014.8 hPa | 0 mm | 0.45 m/s, 341° | 140 W/m² | - |
| 1778165278 | 11.67° C | 57% | 1015 hPa | 0 mm | 0.45 m/s, 331° | 140 W/m² | - |
| 1778165216 | 11.67° C | 57% | 1015.1 hPa | 0 mm | 1.79 m/s, 64° | 140 W/m² | - |
| 1778165155 | 11.67° C | 57% | 1014.8 hPa | 0 mm | 1.34 m/s, 35° | 141 W/m² | - |
| 1778165095 | 11.67° C | 57% | 1015 hPa | 0 mm | 0.45 m/s, 34° | 141 W/m² | - |
| 1778165035 | 11.67° C | 57% | 1015 hPa | 0 mm | 0.89 m/s, 48° | 142 W/m² | - |
| 1778164975 | 11.67° C | 56% | 1014.8 hPa | 0 mm | 2.68 m/s, 326° | 142 W/m² | - |
| 1778164915 | 11.67° C | 57% | 1015 hPa | 0 mm | 0.45 m/s, 26° | 143 W/m² | - |
| 1778164856 | 11.67° C | 57% | 1015 hPa | 0 mm | 0.89 m/s, 333° | 143 W/m² | - |
| 1778164795 | 11.67° C | 56% | 1014.9 hPa | 0 mm | 1.79 m/s, 346° | 143 W/m² | - |
| 1778164735 | 11.67° C | 57% | 1014.9 hPa | 0 mm | 1.34 m/s, 30° | 144 W/m² | - |
| 1778164675 | 11.67° C | 56% | 1015 hPa | 0 mm | 2.24 m/s, 288° | 144 W/m² | - |
| 1778164615 | 11.67° C | 57% | 1014.8 hPa | 0 mm | 2.24 m/s, 106° | 144 W/m² | - |
* Rain latest hour (hover to see other rain measurements)
** Current wind speed in m/s (hover to see current wind gust speed)